#timestamp,LO_Frequency,Hit,StdDev 
1591394415.7,286046998.1,N
1591394435.5,286046998.1,N
1591394455.3,286047000.2,N
1591394475.2,286047001.1,N
1591394495.0,286047000.8,N
1591394495.9,286047000.8,N
1591394515.7,286047000.9,N
1591394535.6,286046998.7,N
1591394555.4,286047000.1,N
1591394575.3,286046999.7,N
1591394595.1,286047002.4,N
1591394596.0,286047002.4,N
1591394615.8,286047000.4,N
1591394635.7,286046998.2,N
1591394655.5,286047001.1,N
1591394675.4,286047002.8,N
1591394695.2,286046999.0,N
1591394715.0,286047001.1,N
1591394715.9,286047001.1,N
1591394735.8,286047000.4,N
1591394755.6,286047000.5,N
1591394775.4,286047002.3,N
1591394795.3,286047002.5,N
1591394815.1,286046998.9,N
1591394835.9,286046998.6,N
1591394855.7,286046999.9,N
1591394875.5,286047000.1,N
1591394895.4,286047002.7,N
1591394915.2,286047001.1,N
1591394935.1,286047001.0,N
1591394936.0,286047001.0,N
1591394955.8,286047000.1,N
1591394975.6,286046999.7,N
1591394995.5,286047000.3,N
1591395015.3,286046998.2,N
1591395035.1,286047002.7,N
1591395055.9,286047000.3,N
1591395075.7,286047000.0,N
1591395095.6,286047000.7,N
1591395115.4,286047000.3,N
1591395135.2,286047000.2,N
1591395155.1,286047002.7,N
1591395156.0,286047002.7,N
1591395175.8,286047001.1,N
1591395195.7,286047000.9,N
1591395215.5,286047001.3,N
1591395235.3,286047002.2,N
1591395255.2,286047001.6,N
1591395275.0,286047000.5,N
1591395275.9,286047000.5,N
1591395295.7,286046998.9,N
1591395315.6,286046998.1,N
1591395335.4,286046999.6,N
1591395355.3,286046999.2,N
1591395375.1,286046997.4,N
1591395395.8,286046997.7,N
1591395415.7,286046996.5,N
1591395435.5,286046997.2,N
1591395455.4,286046998.6,N
1591395475.2,286046999.4,N
1591395495.0,286046997.2,N
1591395495.9,286046997.2,N
1591395515.8,286046997.1,N
1591395535.6,286046996.5,N
1591395555.4,286046996.8,N
1591395575.3,286046999.3,N
1591395595.1,286046997.2,N
1591395615.9,286046997.2,N
1591395635.7,286046997.8,N
1591395655.5,286046997.5,N
1591395675.4,286046995.4,N
1591395695.2,286046996.8,N
1591395715.1,286046997.0,N
1591395716.0,286046997.0,N
1591395735.8,286046996.8,N
1591395755.6,286046999.2,N
1591395775.5,286046996.8,N
1591395795.3,286046996.5,N
1591395815.2,286046997.1,N
1591395835.9,286046996.3,Y
1591395855.7,286046997.7,P
1591395875.6,286046996.5,P
1591395895.4,286046998.4,N
1591395915.3,286046999.4,N
1591395935.1,286047001.1,N
1591395936.0,286047001.1,N
1591395955.8,286046999.3,N
1591395975.7,286046998.3,N
1591395995.5,286046996.9,N
1591396015.4,286046997.5,N
1591396035.2,286047000.9,N
1591396055.0,286046999.6,N
1591396055.9,286046999.6,N
1591396075.8,286046997.0,N
1591396095.6,286046996.2,N
1591396115.5,286046995.0,Y
1591396135.3,286046996.8,P
1591396155.1,286046997.2,P
1591396175.9,286046998.0,N
1591396195.7,286046996.8,Y
1591396215.5,286046998.4,P
1591396235.4,286046998.6,P
1591396255.2,286047000.7,N
1591396275.1,286047002.7,N
1591396276.0,286047002.7,N
1591396295.8,286047004.4,N
1591396315.6,286047002.3,N
1591396335.5,286047001.5,N
1591396355.3,286047002.3,N
1591396375.1,286047002.2,N
1591396395.9,286046999.7,N
1591396415.7,286047002.2,N
1591396435.6,286047002.8,N
1591396455.4,286047003.6,N
1591396475.2,286047003.6,N
1591396495.1,286047003.3,N
1591396496.0,286047003.3,N
1591396515.8,286047005.7,N
1591396535.7,286047005.2,N
1591396555.5,286047005.0,N
1591396575.3,286047002.9,N
1591396595.2,286047003.7,N
1591396615.0,286047001.7,N
1591396615.9,286047001.7,N
1591396635.8,286047003.8,N
1591396655.6,286047003.6,N
1591396675.4,286047004.4,N
1591396695.3,286047001.6,N
1591396715.1,286047001.8,N
1591396735.9,286047002.2,N
1591396755.7,286047006.0,Y
1591396775.5,286047000.2,P
1591396795.4,286047000.0,N
1591396815.2,286047004.4,P
1591396835.0,286047002.0,N
1591396835.9,286047002.0,N
1591396855.8,286047001.8,N
1591396875.6,286047004.7,Y
1591396895.5,286047002.3,P
1591396915.3,286047000.1,N
1591396935.1,286046998.6,N
1591396955.9,286046999.0,N
1591396975.7,286046998.8,N
1591396995.6,286046998.2,N
1591397015.4,286047000.6,N
1591397035.2,286046998.1,N
1591397055.1,286047000.9,N
1591397056.0,286047000.9,N
1591397075.8,286046998.5,N
1591397095.6,286046998.2,N
1591397115.5,286046999.0,N
1591397135.3,286046999.3,N
1591397155.2,286047001.2,N
1591397175.9,286047000.4,N
1591397195.7,286047002.8,N
1591397215.6,286047000.4,N
1591397235.4,286046999.8,N
1591397255.3,286046999.7,N
1591397275.1,286047000.0,N
1591397276.0,286047000.0,N
1591397295.8,286046999.7,N
1591397315.7,286046999.7,N
1591397335.5,286047002.7,N
1591397355.4,286047004.2,Y
1591397375.2,286047002.5,P
1591397395.0,286047000.6,N
1591397395.9,286047000.6,N
1591397415.8,286047002.4,N
1591397435.6,286047000.9,N
1591397455.4,286047000.8,N
1591397475.3,286046998.9,N
1591397495.1,286047000.3,N
1591397515.9,286047000.2,N
1591397535.7,286047000.4,N
1591397555.5,286047000.8,N
1591397575.4,286047002.0,N
1591397595.2,286047001.1,N
1591397615.0,286047000.0,N
1591397616.0,286047000.0,N
1591397635.8,286047001.0,N
1591397655.6,286047002.8,Y
1591397675.5,286046999.7,P
1591397695.3,286047000.0,N
1591397715.1,286047001.4,P
1591397735.9,286046998.6,N
1591397755.7,286046999.1,N
1591397775.6,286046998.1,N
1591397795.4,286046998.8,N
1591397815.2,286046999.3,N
1591397835.1,286046999.5,N
1591397836.0,286046999.5,N
1591397855.8,286046998.6,N
1591397875.7,286047000.9,N
1591397895.5,286047000.6,N
1591397915.3,286047002.0,N
1591397935.2,286047002.8,N
1591397955.0,286046998.7,N
1591397955.9,286046998.7,N
1591397975.8,286047002.8,N
1591397995.6,286047002.6,N
